Location: Il Ritiro
(43.4167°N, 13.1333°E)
Time: 17:07:21
(UTC+00:00)

Cosmos 2322 - Pass Details

Date: 05 July 2020
Orbit: 841 x 854 km, 71.0° (Epoch: 10 August)

Event Time Altitude Azimuth Distance (km) Brightness Sun altitude
Rises 20:16:28 0° 197° (SSW) 3,407 6.5 -12.6°
Reaches altitude 10° 20:18:55 10° 196° (SSW) 2,476 5.8 -12.9°
Maximum altitude 20:24:35 75° 112° (ESE) 886 3.7 -13.5°
Drops below altitude 10° 20:30:18 10° 28° (NNE) 2,492 6.5 -14.2°
Sets 20:32:46 0° 27° (NNE) 3,431 7.2 -14.4°
